����������;��������(kVARh)
2019-10-28 00:00;19,85
2019-10-28 00:15;20
2019-10-28 00:30;19,1
2019-10-28 00:45;19,95
2019-10-28 01:00;19,15
2019-10-28 01:15;18,8
2019-10-28 01:30;17,6
2019-10-28 01:45;16,75
2019-10-28 02:00;16,4
2019-10-28 02:15;16,3
2019-10-28 02:30;17
2019-10-28 02:45;18
2019-10-28 03:00;18,25
2019-10-28 03:15;18,6
2019-10-28 03:30;19,4
2019-10-28 03:45;19,1
2019-10-28 04:00;20,15
2019-10-28 04:15;20,8
2019-10-28 04:30;19,6
2019-10-28 04:45;19,8
2019-10-28 05:00;20,55
2019-10-28 05:15;19,55
2019-10-28 05:30;18,95
2019-10-28 05:45;19,25
2019-10-28 06:00;19,25
2019-10-28 06:15;18,65
2019-10-28 06:30;18,7
2019-10-28 06:45;14,45
2019-10-28 07:00;14,6
2019-10-28 07:15;13,7
2019-10-28 07:30;13,8
2019-10-28 07:45;12,6
2019-10-28 08:00;21,95
2019-10-28 08:15;27,8
2019-10-28 08:30;27,1
2019-10-28 08:45;27,6
2019-10-28 09:00;27,65
2019-10-28 09:15;26,85
2019-10-28 09:30;25,2
2019-10-28 09:45;25,5
2019-10-28 10:00;26,15
2019-10-28 10:15;26,15
2019-10-28 10:30;24,8
2019-10-28 10:45;24,75
2019-10-28 11:00;28,85
2019-10-28 11:15;30,2
2019-10-28 11:30;31,4
2019-10-28 11:45;31
2019-10-28 12:00;32,75
2019-10-28 12:15;32,45
2019-10-28 12:30;31,35
2019-10-28 12:45;28,5
2019-10-28 13:00;27,85
2019-10-28 13:15;27,65
2019-10-28 13:30;28,35
2019-10-28 13:45;28,7
2019-10-28 14:00;29,5
2019-10-28 14:15;28,75
2019-10-28 14:30;30,4
2019-10-28 14:45;33,35
2019-10-28 15:00;35,55
2019-10-28 15:15;34,3
2019-10-28 15:30;35,3
2019-10-28 15:45;31,65
2019-10-28 16:00;30,55
2019-10-28 16:15;27,8
2019-10-28 16:30;30,35
2019-10-28 16:45;30,7
2019-10-28 17:00;29,25
2019-10-28 17:15;28,8
2019-10-28 17:30;31,5
2019-10-28 17:45;33,95
2019-10-28 18:00;33,1
2019-10-28 18:15;31,6
2019-10-28 18:30;31,75
2019-10-28 18:45;32,85
2019-10-28 19:00;34,25
2019-10-28 19:15;32,45
2019-10-28 19:30;32,4
2019-10-28 19:45;32,1
2019-10-28 20:00;32,6
2019-10-28 20:15;30,15
2019-10-28 20:30;31,75
2019-10-28 20:45;32,8
2019-10-28 21:00;29,25
2019-10-28 21:15;29,15
2019-10-28 21:30;28,7
2019-10-28 21:45;24,35
2019-10-28 22:00;21,35
2019-10-28 22:15;21,2
2019-10-28 22:30;21,1
2019-10-28 22:45;21,8
2019-10-28 23:00;24,35
2019-10-28 23:15;23,8
2019-10-28 23:30;24,95
2019-10-28 23:45;22,7
2019-10-29 00:00;20,4
2019-10-29 00:15;20,25
2019-10-29 00:30;41,3
2019-10-29 00:45;21,95
2019-10-29 01:00;21,7
2019-10-29 01:15;20,7
2019-10-29 01:30;22,1
2019-10-29 01:45;23
2019-10-29 02:00;22,95
2019-10-29 02:15;20,55
2019-10-29 02:30;21,2
2019-10-29 02:45;20,9
2019-10-29 03:00;20,8
2019-10-29 03:15;21,25
2019-10-29 03:30;21,55
2019-10-29 03:45;21,9
2019-10-29 04:00;22,6
2019-10-29 04:15;22,35
2019-10-29 04:30;22,45
2019-10-29 04:45;21,9
2019-10-29 05:00;21,7
2019-10-29 05:15;21,1
2019-10-29 05:30;21,1
2019-10-29 05:45;20,85
2019-10-29 06:00;19,5
2019-10-29 06:15;17,45
2019-10-29 06:30;17,8
2019-10-29 06:45;19,4
2019-10-29 07:00;20,05
2019-10-29 07:15;18,35
2019-10-29 07:30;18,75
2019-10-29 07:45;21,2
2019-10-29 08:00;21,75
2019-10-29 08:15;27,45
2019-10-29 08:30;29,7
2019-10-29 08:45;36,7
2019-10-29 09:00;44
2019-10-29 09:15;43,95
2019-10-29 09:30;48,4
2019-10-29 09:45;52,55
2019-10-29 10:00;54,4
2019-10-29 10:15;54,25
2019-10-29 10:30;53,05
2019-10-29 10:45;54,75
2019-10-29 11:00;55,4
2019-10-29 11:15;60,2
2019-10-29 11:30;62,1
2019-10-29 11:45;61,15
2019-10-29 12:00;61,9
2019-10-29 12:15;61,9
2019-10-29 12:30;62,95
2019-10-29 12:45;57,2
2019-10-29 13:00;58,7
2019-10-29 13:15;58,05
2019-10-29 13:30;57,25
2019-10-29 13:45;57,1
2019-10-29 14:00;56,95
2019-10-29 14:15;55,4
2019-10-29 14:30;54,2
2019-10-29 14:45;54,85
2019-10-29 15:00;54
2019-10-29 15:15;49,95
2019-10-29 15:30;48,75
2019-10-29 15:45;47,7
2019-10-29 16:00;44,1
2019-10-29 16:15;42,7
2019-10-29 16:30;42,7
2019-10-29 16:45;41,9
2019-10-29 17:00;38,95
2019-10-29 17:15;41,1
2019-10-29 17:30;39,25
2019-10-29 17:45;39,4
2019-10-29 18:00;41,25
2019-10-29 18:15;43,65
2019-10-29 18:30;43,8
2019-10-29 18:45;43,8
2019-10-29 19:00;42,1
2019-10-29 19:15;41,05
2019-10-29 19:30;39,95
2019-10-29 19:45;39,4
2019-10-29 20:00;36,75
2019-10-29 20:15;36,05
2019-10-29 20:30;35,25
2019-10-29 20:45;32,45
2019-10-29 21:00;31,5
2019-10-29 21:15;31,4
2019-10-29 21:30;25,85
2019-10-29 21:45;25,1
2019-10-29 22:00;27,65
2019-10-29 22:15;20,15
2019-10-29 22:30;19,8
2019-10-29 22:45;19,05
2019-10-29 23:00;16,3
2019-10-29 23:15;18,5
2019-10-29 23:30;16,65
2019-10-29 23:45;14,2
2019-10-30 00:00;13,8
2019-10-30 00:15;13,4
2019-10-30 00:30;10,55
2019-10-30 00:45;11,65
2019-10-30 01:00;12,05
2019-10-30 01:15;12,5
2019-10-30 01:30;12,9
2019-10-30 01:45;12,75
2019-10-30 02:00;12,7
2019-10-30 02:15;12,65
2019-10-30 02:30;12,7
2019-10-30 02:45;12,35
2019-10-30 03:00;14,4
2019-10-30 03:15;14,1
2019-10-30 03:30;14,25
2019-10-30 03:45;16,2
2019-10-30 04:00;15,45
2019-10-30 04:15;15,25
2019-10-30 04:30;15,3
2019-10-30 04:45;15,4
2019-10-30 05:00;15,4
2019-10-30 05:15;16,1
2019-10-30 05:30;15,4
2019-10-30 05:45;14,1
2019-10-30 06:00;13,4
2019-10-30 06:15;13,45
2019-10-30 06:30;14,3
2019-10-30 06:45;14,75
2019-10-30 07:00;14,1
2019-10-30 07:15;12,3
2019-10-30 07:30;15,35
2019-10-30 07:45;15,45
2019-10-30 08:00;15,9
2019-10-30 08:15;18,05
2019-10-30 08:30;20,95
2019-10-30 08:45;26,45
2019-10-30 09:00;25,35
2019-10-30 09:15;32,45
2019-10-30 09:30;47,45
2019-10-30 09:45;49,75
2019-10-30 10:00;50,75
2019-10-30 10:15;52,2
2019-10-30 10:30;53,7
2019-10-30 10:45;54,4
2019-10-30 11:00;57,1
2019-10-30 11:15;64,3
2019-10-30 11:30;64,9
2019-10-30 11:45;64,3
2019-10-30 12:00;63,7
2019-10-30 12:15;64,3
2019-10-30 12:30;62,6
2019-10-30 12:45;62,2
2019-10-30 13:00;63,45
2019-10-30 13:15;65,45
2019-10-30 13:30;61,25
2019-10-30 13:45;56,4
2019-10-30 14:00;53,15
2019-10-30 14:15;55,5
2019-10-30 14:30;56,15
2019-10-30 14:45;56,05
2019-10-30 15:00;54
2019-10-30 15:15;52,65
2019-10-30 15:30;53,9
2019-10-30 15:45;53,85
2019-10-30 16:00;52,6
2019-10-30 16:15;42,9
2019-10-30 16:30;42,55
2019-10-30 16:45;39,65
2019-10-30 17:00;36,9
2019-10-30 17:15;40,1
2019-10-30 17:30;39
2019-10-30 17:45;34,45
2019-10-30 18:00;36,95
2019-10-30 18:15;41,15
2019-10-30 18:30;40,4
2019-10-30 18:45;40,55
2019-10-30 19:00;41,55
2019-10-30 19:15;35,5
2019-10-30 19:30;30,15
2019-10-30 19:45;30,05
2019-10-30 20:00;30,25
2019-10-30 20:15;25,4
2019-10-30 20:30;25,85
2019-10-30 20:45;26,2
2019-10-30 21:00;25,75
2019-10-30 21:15;25,5
2019-10-30 21:30;25,3
2019-10-30 21:45;20,35
2019-10-30 22:00;14,15
2019-10-30 22:15;15,15
2019-10-30 22:30;14,15
2019-10-30 22:45;14,8
2019-10-30 23:00;18,3
2019-10-30 23:15;12,9
2019-10-30 23:30;11,7
2019-10-30 23:45;12,5
2019-10-31 00:00;9,6
2019-10-31 00:15;10
2019-10-31 00:30;12,1
2019-10-31 00:45;13
2019-10-31 01:00;14,5
2019-10-31 01:15;14,4
2019-10-31 01:30;13,75
2019-10-31 01:45;13,7
2019-10-31 02:00;14
2019-10-31 02:15;14,15
2019-10-31 02:30;14,35
2019-10-31 02:45;15,65
2019-10-31 03:00;15,2
2019-10-31 03:15;15,85
2019-10-31 03:30;16,1
2019-10-31 03:45;16,65
2019-10-31 04:00;17,75
2019-10-31 04:15;16,9
2019-10-31 04:30;17,95
2019-10-31 04:45;18,8
2019-10-31 05:00;17,25
2019-10-31 05:15;17,5
2019-10-31 05:30;14,85
2019-10-31 05:45;14,15
2019-10-31 06:00;11,05
2019-10-31 06:15;18,5
2019-10-31 06:30;22,3
2019-10-31 06:45;23,6
2019-10-31 07:00;21,45
2019-10-31 07:15;20,75
2019-10-31 07:30;20,1
2019-10-31 07:45;19,45
2019-10-31 08:00;19,05
2019-10-31 08:15;24,6
2019-10-31 08:30;25,1
2019-10-31 08:45;25,25
2019-10-31 09:00;23,75
2019-10-31 09:15;23,95
2019-10-31 09:30;24,25
2019-10-31 09:45;23,35
2019-10-31 10:00;23,45
2019-10-31 10:15;22,5
2019-10-31 10:30;20,9
2019-10-31 10:45;22,5
2019-10-31 11:00;22,9
2019-10-31 11:15;22,6
2019-10-31 11:30;22,25
2019-10-31 11:45;22,75
2019-10-31 12:00;22,65
2019-10-31 12:15;22,3
2019-10-31 12:30;22,2
2019-10-31 12:45;26,85
2019-10-31 13:00;28,5
2019-10-31 13:15;29,6
2019-10-31 13:30;30,3
2019-10-31 13:45;29,4
2019-10-31 14:00;29,3
2019-10-31 14:15;30,8
2019-10-31 14:30;30,25
2019-10-31 14:45;29,9
2019-10-31 15:00;28,15
2019-10-31 15:15;27,35
2019-10-31 15:30;26,8
2019-10-31 15:45;27,65
2019-10-31 16:00;28,1
2019-10-31 16:15;26,8
2019-10-31 16:30;27,35
2019-10-31 16:45;26,85
2019-10-31 17:00;28,9
2019-10-31 17:15;31,2
2019-10-31 17:30;28
2019-10-31 17:45;25,65
2019-10-31 18:00;21,05
2019-10-31 18:15;21,45
2019-10-31 18:30;22
2019-10-31 18:45;23,2
2019-10-31 19:00;24
2019-10-31 19:15;25,75
2019-10-31 19:30;23,95
2019-10-31 19:45;23
2019-10-31 20:00;25
2019-10-31 20:15;22,2
2019-10-31 20:30;20,95
2019-10-31 20:45;22,35
2019-10-31 21:00;23,05
2019-10-31 21:15;25,2
2019-10-31 21:30;17
2019-10-31 21:45;12,55
2019-10-31 22:00;12,05
2019-10-31 22:15;13
2019-10-31 22:30;11,25
2019-10-31 22:45;10,95
2019-10-31 23:00;13,15
2019-10-31 23:15;12,3
2019-10-31 23:30;14,6
2019-10-31 23:45;16,7
2019-11-01 00:00;14,75
2019-11-01 00:15;14,8
2019-11-01 00:30;13,45
2019-11-01 00:45;15,7
2019-11-01 01:00;11,75
2019-11-01 01:15;6,6
2019-11-01 01:30;6,65
2019-11-01 01:45;7,85
2019-11-01 02:00;6,55
2019-11-01 02:15;7,4
2019-11-01 02:30;7,5
2019-11-01 02:45;7,45
2019-11-01 03:00;9,45
2019-11-01 03:15;8,95
2019-11-01 03:30;9,3
2019-11-01 03:45;11,45
2019-11-01 04:00;9,85
2019-11-01 04:15;9,9
2019-11-01 04:30;11,5
2019-11-01 04:45;10,6
2019-11-01 05:00;10,15
2019-11-01 05:15;10,6
2019-11-01 05:30;9,4
2019-11-01 05:45;9,3
2019-11-01 06:00;10,25
2019-11-01 06:15;7,2
2019-11-01 06:30;7,75
2019-11-01 06:45;13,1
2019-11-01 07:00;20,25
2019-11-01 07:15;18,9
2019-11-01 07:30;21,85
2019-11-01 07:45;24,45
2019-11-01 08:00;22,65
2019-11-01 08:15;23,05
2019-11-01 08:30;22,3
2019-11-01 08:45;20,65
2019-11-01 09:00;24,55
2019-11-01 09:15;25,1
2019-11-01 09:30;24,75
2019-11-01 09:45;23,85
2019-11-01 10:00;24,1
2019-11-01 10:15;22,95
2019-11-01 10:30;22,7
2019-11-01 10:45;23,25
2019-11-01 11:00;23,6
2019-11-01 11:15;23,05
2019-11-01 11:30;24,05
2019-11-01 11:45;23,75
2019-11-01 12:00;24,05
2019-11-01 12:15;24,95
2019-11-01 12:30;24,8
2019-11-01 12:45;26
2019-11-01 13:00;25,95
2019-11-01 13:15;27,55
2019-11-01 13:30;27,8
2019-11-01 13:45;29,25
2019-11-01 14:00;29,4
2019-11-01 14:15;29,1
2019-11-01 14:30;28,4
2019-11-01 14:45;31,5
2019-11-01 15:00;28,8
2019-11-01 15:15;25,55
2019-11-01 15:30;23,9
2019-11-01 15:45;22,5
2019-11-01 16:00;22,6
2019-11-01 16:15;22,5
2019-11-01 16:30;21,95
2019-11-01 16:45;20,8
2019-11-01 17:00;20,5
2019-11-01 17:15;20,3
2019-11-01 17:30;19,4
2019-11-01 17:45;20,05
2019-11-01 18:00;20,35
2019-11-01 18:15;19,5
2019-11-01 18:30;19,4
2019-11-01 18:45;23,9
2019-11-01 19:00;25,75
2019-11-01 19:15;27,05
2019-11-01 19:30;26,6
2019-11-01 19:45;22,5
2019-11-01 20:00;18,6
2019-11-01 20:15;18,2
2019-11-01 20:30;17,5
2019-11-01 20:45;16,85
2019-11-01 21:00;17,9
2019-11-01 21:15;20,05
2019-11-01 21:30;19,45
2019-11-01 21:45;17,75
2019-11-01 22:00;18,1
2019-11-01 22:15;17,55
2019-11-01 22:30;14,65
2019-11-01 22:45;13,7
2019-11-01 23:00;15
2019-11-01 23:15;14,35
2019-11-01 23:30;17,8
2019-11-01 23:45;14,75
2019-11-02 00:00;8,3
2019-11-02 00:15;8,45
2019-11-02 00:30;9,45
2019-11-02 00:45;11
2019-11-02 01:00;10,5
2019-11-02 01:15;11,6
2019-11-02 01:30;12,4
2019-11-02 01:45;11,5
2019-11-02 02:00;10,1
2019-11-02 02:15;11,7
2019-11-02 02:30;13,2
2019-11-02 02:45;12,2
2019-11-02 03:00;11,9
2019-11-02 03:15;13,25
2019-11-02 03:30;12,45
2019-11-02 03:45;11,65
2019-11-02 04:00;11,8
2019-11-02 04:15;13,35
2019-11-02 04:30;13,3
2019-11-02 04:45;12,7
2019-11-02 05:00;10,8
2019-11-02 05:15;12,15
2019-11-02 05:30;12
2019-11-02 05:45;11,6
2019-11-02 06:00;10,8
2019-11-02 06:15;11
2019-11-02 06:30;10,05
2019-11-02 06:45;13
2019-11-02 07:00;16
2019-11-02 07:15;16,1
2019-11-02 07:30;15,95
2019-11-02 07:45;16,2
2019-11-02 08:00;18,75
2019-11-02 08:15;20,65
2019-11-02 08:30;20,35
2019-11-02 08:45;19,55
2019-11-02 09:00;19,45
2019-11-02 09:15;19,05
2019-11-02 09:30;18,2
2019-11-02 09:45;17,4
2019-11-02 10:00;18,25
2019-11-02 10:15;16,05
2019-11-02 10:30;14,9
2019-11-02 10:45;14,75
2019-11-02 11:00;18,6
2019-11-02 11:15;19,25
2019-11-02 11:30;20,05
2019-11-02 11:45;21,45
2019-11-02 12:00;20,45
2019-11-02 12:15;20,6
2019-11-02 12:30;21,35
2019-11-02 12:45;20,05
2019-11-02 13:00;18,75
2019-11-02 13:15;19,95
2019-11-02 13:30;19,9
2019-11-02 13:45;21,3
2019-11-02 14:00;21,7
2019-11-02 14:15;21,4
2019-11-02 14:30;21,9
2019-11-02 14:45;22,2
2019-11-02 15:00;22,35
2019-11-02 15:15;23,2
2019-11-02 15:30;24
2019-11-02 15:45;25,3
2019-11-02 16:00;22,85
2019-11-02 16:15;22,85
2019-11-02 16:30;24,45
2019-11-02 16:45;22,45
2019-11-02 17:00;24
2019-11-02 17:15;24,55
2019-11-02 17:30;24,55
2019-11-02 17:45;23,15
2019-11-02 18:00;22,1
2019-11-02 18:15;21,5
2019-11-02 18:30;22,25
2019-11-02 18:45;23,5
2019-11-02 19:00;23,6
2019-11-02 19:15;24,2
2019-11-02 19:30;25,65
2019-11-02 19:45;24,75
2019-11-02 20:00;25,15
2019-11-02 20:15;26,15
2019-11-02 20:30;25,75
2019-11-02 20:45;22,95
2019-11-02 21:00;20,25
2019-11-02 21:15;19,45
2019-11-02 21:30;18,85
2019-11-02 21:45;18,15
2019-11-02 22:00;17,95
2019-11-02 22:15;13,15
2019-11-02 22:30;14,2
2019-11-02 22:45;14,15
2019-11-02 23:00;16,2
2019-11-02 23:15;15,35
2019-11-02 23:30;16,85
2019-11-02 23:45;18,35
2019-11-03 00:00;17,45
2019-11-03 00:15;16,3
2019-11-03 00:30;17,05
2019-11-03 00:45;17,2
2019-11-03 01:00;18,55
2019-11-03 01:15;17,05
2019-11-03 01:30;16,95
2019-11-03 01:45;16,2
2019-11-03 02:00;15,15
2019-11-03 02:15;15,65
2019-11-03 02:30;15,9
2019-11-03 02:45;15,3
2019-11-03 03:00;16,35
2019-11-03 03:15;17,75
2019-11-03 03:30;17,9
2019-11-03 03:45;17,65
2019-11-03 04:00;18,45
2019-11-03 04:15;18,8
2019-11-03 04:30;18,7
2019-11-03 04:45;19,95
2019-11-03 05:00;19,2
2019-11-03 05:15;18,9
2019-11-03 05:30;18,65
2019-11-03 05:45;17,45
2019-11-03 06:00;17,7
2019-11-03 06:15;17,6
2019-11-03 06:30;17,75
2019-11-03 06:45;17,95
2019-11-03 07:00;18,05
2019-11-03 07:15;17,7
2019-11-03 07:30;16,55
2019-11-03 07:45;17,1
2019-11-03 08:00;16,85
2019-11-03 08:15;16,05
2019-11-03 08:30;14,95
2019-11-03 08:45;14,2
2019-11-03 09:00;13,5
2019-11-03 09:15;13,25
2019-11-03 09:30;14,9
2019-11-03 09:45;14,5
2019-11-03 10:00;13,15
2019-11-03 10:15;13,2
2019-11-03 10:30;15,8
2019-11-03 10:45;16,8
2019-11-03 11:00;17,15
2019-11-03 11:15;16,2
2019-11-03 11:30;15,45
2019-11-03 11:45;16,8
2019-11-03 12:00;18,6
2019-11-03 12:15;17,65
2019-11-03 12:30;18,5
2019-11-03 12:45;18,4
2019-11-03 13:00;17,6
2019-11-03 13:15;16,65
2019-11-03 13:30;18,25
2019-11-03 13:45;18,4
2019-11-03 14:00;18,15
2019-11-03 14:15;18,2
2019-11-03 14:30;21,2
2019-11-03 14:45;21,2
2019-11-03 15:00;22
2019-11-03 15:15;21,7
2019-11-03 15:30;21,8
2019-11-03 15:45;22,05
2019-11-03 16:00;22,25
2019-11-03 16:15;21,3
2019-11-03 16:30;21,8
2019-11-03 16:45;21,3
2019-11-03 17:00;20,75
2019-11-03 17:15;20,65
2019-11-03 17:30;20,3
2019-11-03 17:45;18,6
2019-11-03 18:00;16,85
2019-11-03 18:15;16,45
2019-11-03 18:30;17,2
2019-11-03 18:45;17,25
2019-11-03 19:00;17,5
2019-11-03 19:15;19,05
2019-11-03 19:30;18,9
2019-11-03 19:45;18,6
2019-11-03 20:00;20,25
2019-11-03 20:15;18,95
2019-11-03 20:30;18,85
2019-11-03 20:45;21,3
2019-11-03 21:00;19,95
2019-11-03 21:15;21,45
2019-11-03 21:30;21,95
2019-11-03 21:45;22,1
2019-11-03 22:00;20,95
2019-11-03 22:15;18,25
2019-11-03 22:30;15,85
2019-11-03 22:45;15,6
2019-11-03 23:00;16,5
2019-11-03 23:15;8,3
2019-11-03 23:30;11,05
2019-11-03 23:45;12,15

